NFC9314 ENBR-EKBI

Flight info

Callsign NFC9314
Flight time 0h 54m
Altitude 35000
Route TUXIL4C TUXIL DCT ZOL DCT GELBA DCT
Aircraft B738/M-SDE2E3FGHIRWXY/LB1

Departure

Time 2026-05-04 01:58
Airport Bergen Airport, Flesland (ENBR)

Arrival

Time 2026-05-04 02:52
Airport Billund Airport (EKBI)
Time Latitude Longitude Altitude Speed Heading
2026-05-04 01:43 60.29605 5.22299 149 ft 0 kts 260°
2026-05-04 01:52 60.29605 5.22296 149 ft 2 kts 260°
2026-05-04 01:52 60.29601 5.22240 149 ft 6 kts 261°
2026-05-04 01:52 60.29603 5.22187 149 ft 4 kts 307°
2026-05-04 01:53 60.29652 5.22156 147 ft 10 kts 350°
2026-05-04 01:53 60.29721 5.22121 147 ft 10 kts 323°
2026-05-04 01:53 60.29736 5.22039 147 ft 6 kts 289°
2026-05-04 01:53 60.29770 5.21993 147 ft 7 kts 351°
2026-05-04 01:54 60.29833 5.21973 149 ft 12 kts 351°
2026-05-04 01:54 60.29926 5.21942 154 ft 16 kts 350°
2026-05-04 01:54 60.30047 5.21901 158 ft 19 kts 350°
2026-05-04 01:54 60.30176 5.21859 163 ft 18 kts 351°
2026-05-04 01:55 60.30301 5.21817 167 ft 18 kts 351°
2026-05-04 01:55 60.30421 5.21776 172 ft 17 kts 350°
2026-05-04 01:55 60.30537 5.21735 177 ft 17 kts 350°
2026-05-04 01:55 60.30631 5.21702 180 ft 10 kts 344°
2026-05-04 01:56 60.30664 5.21594 181 ft 10 kts 263°
2026-05-04 01:56 60.30655 5.21473 183 ft 3 kts 260°
2026-05-04 01:56 60.30654 5.21460 183 ft 1 kts 259°
2026-05-04 01:56 60.30652 5.21436 183 ft 3 kts 259°
2026-05-04 01:57 60.30646 5.21387 192 ft 4 kts 248°
2026-05-04 01:57 60.30630 5.21378 175 ft 4 kts 171°
2026-05-04 01:57 60.30450 5.21444 171 ft 62 kts 171°
2026-05-04 01:57 60.29785 5.21668 154 ft 128 kts 170°
2026-05-04 01:58 60.28778 5.21997 429 ft 153 kts 169°
2026-05-04 01:58 60.27725 5.22317 1222 ft 153 kts 174°
2026-05-04 01:58 60.26639 5.22631 1803 ft 167 kts 175°
2026-05-04 01:58 60.25444 5.22975 2396 ft 184 kts 176°
2026-05-04 01:59 60.24079 5.23351 2642 ft 211 kts 176°
2026-05-04 01:59 60.22555 5.23849 2956 ft 230 kts 174°
2026-05-04 01:59 60.20928 5.24427 3301 ft 248 kts 174°
2026-05-04 01:59 60.19179 5.25050 3783 ft 262 kts 174°
2026-05-04 02:00 60.17372 5.25694 4618 ft 266 kts 174°
2026-05-04 02:00 60.15533 5.26341 5418 ft 271 kts 175°
2026-05-04 02:00 60.13659 5.26989 6215 ft 276 kts 175°
2026-05-04 02:00 60.11747 5.27646 6992 ft 281 kts 175°
2026-05-04 02:01 60.09810 5.28308 7797 ft 284 kts 175°
2026-05-04 02:01 60.07848 5.28931 8574 ft 288 kts 177°
2026-05-04 02:01 60.05850 5.29466 9351 ft 291 kts 178°
2026-05-04 02:01 60.03829 5.29987 10155 ft 294 kts 179°
2026-05-04 02:02 60.01732 5.30519 10458 ft 316 kts 179°
2026-05-04 02:02 59.99472 5.31095 10649 ft 338 kts 178°
2026-05-04 02:02 59.97084 5.31719 11062 ft 352 kts 178°
2026-05-04 02:02 59.94642 5.32376 11763 ft 356 kts 178°
2026-05-04 02:03 59.92186 5.33040 12580 ft 357 kts 178°
2026-05-04 02:03 59.89720 5.33704 13400 ft 359 kts 178°
2026-05-04 02:03 59.87228 5.34373 14160 ft 363 kts 179°
2026-05-04 02:03 59.84715 5.35044 14883 ft 366 kts 179°
2026-05-04 02:04 59.82180 5.35714 15640 ft 369 kts 179°
2026-05-04 02:04 59.79626 5.36388 16382 ft 372 kts 179°
2026-05-04 02:04 59.77054 5.36908 17088 ft 373 kts 182°
2026-05-04 02:04 59.74461 5.37293 17848 ft 374 kts 182°
2026-05-04 02:05 59.71849 5.37667 18504 ft 378 kts 182°
2026-05-04 02:05 59.69216 5.38072 19109 ft 381 kts 182°
2026-05-04 02:05 59.66567 5.38500 19730 ft 383 kts 182°
2026-05-04 02:05 59.63900 5.38960 20353 ft 387 kts 181°
2026-05-04 02:06 59.61212 5.39583 20949 ft 391 kts 180°
2026-05-04 02:06 59.58503 5.40294 21511 ft 394 kts 179°
2026-05-04 02:06 59.55776 5.41024 22101 ft 397 kts 179°
2026-05-04 02:06 59.53029 5.41748 22674 ft 399 kts 179°
2026-05-04 02:07 59.50300 5.42456 23227 ft 402 kts 179°
2026-05-04 02:07 59.47515 5.43169 23675 ft 405 kts 179°
2026-05-04 02:07 59.44715 5.43877 24110 ft 408 kts 179°
2026-05-04 02:07 59.41887 5.44585 24551 ft 410 kts 179°
2026-05-04 02:08 59.39049 5.45340 24989 ft 414 kts 178°
2026-05-04 02:08 59.36195 5.46298 25409 ft 418 kts 176°
2026-05-04 02:08 59.33330 5.47362 25821 ft 421 kts 175°
2026-05-04 02:08 59.30445 5.48463 26232 ft 423 kts 175°
2026-05-04 02:09 59.27543 5.49563 26634 ft 426 kts 175°
2026-05-04 02:09 59.24622 5.50652 27020 ft 428 kts 176°
2026-05-04 02:09 59.21690 5.51729 27395 ft 431 kts 176°
2026-05-04 02:09 59.18733 5.52804 27701 ft 434 kts 175°
2026-05-04 02:10 59.15744 5.53882 27970 ft 438 kts 175°
2026-05-04 02:10 59.12740 5.54963 28317 ft 440 kts 175°
2026-05-04 02:10 59.09722 5.56050 28727 ft 442 kts 175°
2026-05-04 02:10 59.06697 5.57137 29075 ft 444 kts 175°
2026-05-04 02:11 59.03650 5.58230 29385 ft 446 kts 175°
2026-05-04 02:11 59.00592 5.59326 29700 ft 449 kts 175°
2026-05-04 02:11 58.97518 5.60427 30081 ft 449 kts 175°
2026-05-04 02:11 58.94456 5.61522 30495 ft 447 kts 175°
2026-05-04 02:12 58.91402 5.62616 30877 ft 446 kts 174°
2026-05-04 02:12 58.88390 5.64274 31080 ft 456 kts 164°
2026-05-04 02:12 58.85493 5.66907 31338 ft 464 kts 155°
2026-05-04 02:12 58.82817 5.70426 31718 ft 467 kts 148°
2026-05-04 02:13 58.80227 5.74188 32140 ft 465 kts 148°
2026-05-04 02:13 58.77636 5.77945 32475 ft 466 kts 148°
2026-05-04 02:13 58.75042 5.81681 32769 ft 466 kts 148°
2026-05-04 02:13 58.72441 5.85403 33109 ft 466 kts 148°
2026-05-04 02:14 58.69834 5.89112 33475 ft 465 kts 148°
2026-05-04 02:14 58.67233 5.92797 33806 ft 465 kts 149°
2026-05-04 02:14 58.64627 5.96476 34085 ft 465 kts 149°
2026-05-04 02:14 58.62018 6.00150 34328 ft 465 kts 149°
2026-05-04 02:15 58.59410 6.03815 34562 ft 465 kts 149°
2026-05-04 02:15 58.56799 6.07479 34818 ft 465 kts 149°
2026-05-04 02:15 58.52433 6.13585 34889 ft 470 kts 149°
2026-05-04 02:16 58.47150 6.20955 34892 ft 468 kts 149°
2026-05-04 02:16 58.41947 6.28197 34882 ft 460 kts 149°
2026-05-04 02:17 58.36770 6.35364 34884 ft 459 kts 149°
2026-05-04 02:17 58.31597 6.42496 34841 ft 459 kts 149°
2026-05-04 02:18 58.26430 6.49597 34852 ft 458 kts 149°
2026-05-04 02:18 58.21270 6.56662 34864 ft 457 kts 149°
2026-05-04 02:19 58.16100 6.63713 34867 ft 458 kts 149°
2026-05-04 02:19 58.10929 6.70742 34849 ft 458 kts 149°
2026-05-04 02:20 58.05741 6.77768 34850 ft 459 kts 149°
2026-05-04 02:20 58.00582 6.84729 34827 ft 459 kts 149°
2026-05-04 02:21 57.95385 6.91719 34840 ft 459 kts 149°
2026-05-04 02:21 57.90190 6.98679 34848 ft 459 kts 149°
2026-05-04 02:22 57.84976 7.05638 34846 ft 460 kts 149°
2026-05-04 02:22 57.79756 7.12582 34839 ft 460 kts 150°
2026-05-04 02:23 57.74529 7.19509 34838 ft 461 kts 150°
2026-05-04 02:23 57.69294 7.26421 34838 ft 460 kts 150°
2026-05-04 02:24 57.64064 7.33299 34829 ft 459 kts 150°
2026-05-04 02:24 57.58847 7.40142 34843 ft 458 kts 150°
2026-05-04 02:25 57.53637 7.46950 34833 ft 457 kts 150°
2026-05-04 02:25 57.48433 7.53723 34834 ft 456 kts 150°
2026-05-04 02:26 57.43239 7.60461 34845 ft 455 kts 150°
2026-05-04 02:26 57.38047 7.67170 34649 ft 457 kts 150°
2026-05-04 02:27 57.35419 7.70553 34106 ft 459 kts 150°
2026-05-04 02:27 57.32802 7.73921 33405 ft 458 kts 150°
2026-05-04 02:27 57.30185 7.77282 32668 ft 458 kts 151°
2026-05-04 02:27 57.27575 7.80627 31977 ft 456 kts 150°
2026-05-04 02:28 57.24973 7.83960 31448 ft 451 kts 150°
2026-05-04 02:28 57.22411 7.87240 30952 ft 447 kts 150°
2026-05-04 02:28 57.19869 7.90486 30462 ft 442 kts 150°
2026-05-04 02:28 57.17352 7.93695 29980 ft 438 kts 150°
2026-05-04 02:29 57.14862 7.96861 29426 ft 433 kts 150°
2026-05-04 02:29 57.12393 7.99996 28902 ft 427 kts 151°
2026-05-04 02:29 57.09962 8.03078 28421 ft 422 kts 151°
2026-05-04 02:29 57.07559 8.06120 27935 ft 417 kts 151°
2026-05-04 02:30 57.05185 8.09117 27444 ft 412 kts 151°
2026-05-04 02:30 57.02833 8.12081 26967 ft 408 kts 151°
2026-05-04 02:30 57.00503 8.15013 26493 ft 404 kts 151°
2026-05-04 02:30 56.98195 8.17913 26021 ft 401 kts 151°
2026-05-04 02:31 56.95902 8.20790 25563 ft 398 kts 151°
2026-05-04 02:31 56.93658 8.23602 25109 ft 395 kts 151°
2026-05-04 02:31 56.91403 8.26424 24633 ft 392 kts 151°
2026-05-04 02:31 56.89159 8.29228 24184 ft 389 kts 151°
2026-05-04 02:32 56.86932 8.32006 23748 ft 387 kts 151°
2026-05-04 02:32 56.84712 8.34772 23271 ft 385 kts 151°
2026-05-04 02:32 56.82509 8.37511 22722 ft 382 kts 151°
2026-05-04 02:32 56.80317 8.40235 22278 ft 378 kts 151°
2026-05-04 02:33 56.78153 8.42922 21812 ft 376 kts 151°
2026-05-04 02:33 56.76000 8.45588 21372 ft 372 kts 151°
2026-05-04 02:33 56.73864 8.48231 20940 ft 370 kts 151°
2026-05-04 02:33 56.71743 8.50851 20488 ft 367 kts 151°
2026-05-04 02:34 56.69636 8.53450 20053 ft 365 kts 151°
2026-05-04 02:34 56.67541 8.56031 19620 ft 363 kts 151°
2026-05-04 02:34 56.65457 8.58594 19197 ft 361 kts 151°
2026-05-04 02:34 56.63381 8.61143 18777 ft 359 kts 150°
2026-05-04 02:35 56.61311 8.63683 18340 ft 358 kts 150°
2026-05-04 02:35 56.59253 8.66204 17871 ft 357 kts 150°
2026-05-04 02:35 56.57197 8.68720 17401 ft 355 kts 150°
2026-05-04 02:35 56.55156 8.71214 16952 ft 353 kts 150°
2026-05-04 02:36 56.53124 8.73696 16494 ft 351 kts 151°
2026-05-04 02:36 56.51104 8.76158 16069 ft 349 kts 151°
2026-05-04 02:36 56.49120 8.78572 15667 ft 347 kts 150°
2026-05-04 02:36 56.47097 8.81032 15246 ft 345 kts 150°
2026-05-04 02:37 56.45131 8.83419 14839 ft 344 kts 150°
2026-05-04 02:37 56.43146 8.85826 14421 ft 343 kts 150°
2026-05-04 02:37 56.41165 8.88224 14012 ft 342 kts 150°
2026-05-04 02:37 56.39191 8.90611 13573 ft 342 kts 150°
2026-05-04 02:38 56.37218 8.92993 13119 ft 341 kts 150°
2026-05-04 02:38 56.35251 8.95368 12681 ft 339 kts 149°
2026-05-04 02:38 56.33293 8.97727 12246 ft 338 kts 149°
2026-05-04 02:38 56.31343 9.00075 11830 ft 336 kts 149°
2026-05-04 02:39 56.29405 9.02404 11427 ft 335 kts 149°
2026-05-04 02:39 56.27474 9.04723 11015 ft 333 kts 149°
2026-05-04 02:39 56.25547 9.07033 10611 ft 332 kts 149°
2026-05-04 02:39 56.23651 9.09306 10441 ft 323 kts 149°
2026-05-04 02:40 56.21811 9.11511 10284 ft 314 kts 149°
2026-05-04 02:40 56.20020 9.13655 10139 ft 305 kts 150°
2026-05-04 02:40 56.18276 9.15738 10024 ft 297 kts 150°
2026-05-04 02:40 56.16582 9.17762 9899 ft 288 kts 150°
2026-05-04 02:41 56.14923 9.19738 9652 ft 285 kts 150°
2026-05-04 02:41 56.13273 9.21699 9351 ft 284 kts 150°
2026-05-04 02:41 56.11633 9.23645 9060 ft 282 kts 150°
2026-05-04 02:41 56.10003 9.25580 8780 ft 280 kts 150°
2026-05-04 02:42 56.08384 9.27499 8483 ft 279 kts 150°
2026-05-04 02:42 56.06771 9.29408 8193 ft 278 kts 150°
2026-05-04 02:42 56.05162 9.31313 7909 ft 276 kts 150°
2026-05-04 02:42 56.03563 9.33204 7624 ft 275 kts 150°
2026-05-04 02:43 56.01971 9.35085 7344 ft 274 kts 150°
2026-05-04 02:43 56.00383 9.36959 7062 ft 273 kts 150°
2026-05-04 02:43 55.98802 9.38823 6781 ft 272 kts 150°
2026-05-04 02:43 55.97223 9.40684 6502 ft 271 kts 150°
2026-05-04 02:44 55.95671 9.42510 6221 ft 271 kts 150°
2026-05-04 02:44 55.94098 9.44361 5910 ft 271 kts 150°
2026-05-04 02:44 55.92526 9.46209 5607 ft 270 kts 150°
2026-05-04 02:44 55.90959 9.48051 5322 ft 269 kts 150°
2026-05-04 02:45 55.89400 9.49878 5048 ft 268 kts 150°
2026-05-04 02:45 55.87846 9.51697 4762 ft 266 kts 150°
2026-05-04 02:45 55.86303 9.53499 4492 ft 264 kts 150°
2026-05-04 02:45 55.84742 9.55187 4214 ft 261 kts 161°
2026-05-04 02:46 55.82999 9.55573 3949 ft 250 kts 192°
2026-05-04 02:46 55.81354 9.54870 3852 ft 238 kts 201°
2026-05-04 02:46 55.79796 9.53990 3738 ft 231 kts 202°
2026-05-04 02:46 55.78285 9.53130 3629 ft 224 kts 202°
2026-05-04 02:47 55.76823 9.52307 3528 ft 216 kts 203°
2026-05-04 02:47 55.75601 9.50966 3446 ft 203 kts 237°
2026-05-04 02:47 55.75019 9.48749 3453 ft 199 kts 259°
2026-05-04 02:47 55.74972 9.46262 3234 ft 205 kts 276°
2026-05-04 02:48 55.74974 9.43728 3053 ft 204 kts 268°
2026-05-04 02:48 55.74876 9.41269 2895 ft 197 kts 268°
2026-05-04 02:48 55.74790 9.38877 2641 ft 191 kts 269°
2026-05-04 02:48 55.74713 9.36556 2376 ft 184 kts 269°
2026-05-04 02:49 55.74640 9.34356 2129 ft 172 kts 269°
2026-05-04 02:49 55.74573 9.32315 1892 ft 160 kts 271°
2026-05-04 02:49 55.74512 9.30436 1714 ft 144 kts 272°
2026-05-04 02:49 55.74458 9.28748 1522 ft 134 kts 272°
2026-05-04 02:50 55.74407 9.27110 1318 ft 131 kts 270°
2026-05-04 02:50 55.74353 9.25516 1123 ft 128 kts 270°
2026-05-04 02:50 55.74303 9.23936 955 ft 127 kts 270°
2026-05-04 02:50 55.74253 9.22366 744 ft 127 kts 270°
2026-05-04 02:51 55.74209 9.20818 594 ft 123 kts 271°
2026-05-04 02:51 55.74157 9.19320 445 ft 124 kts 271°
2026-05-04 02:51 55.74112 9.17794 264 ft 122 kts 271°
2026-05-04 02:51 55.74071 9.16394 215 ft 100 kts 267°
2026-05-04 02:52 55.74043 9.15445 215 ft 58 kts 267°
2026-05-04 02:52 55.73996 9.15001 217 ft 16 kts 244°
2026-05-04 02:52 55.73945 9.14836 222 ft 15 kts 241°
2026-05-04 02:52 55.73905 9.14709 220 ft 8 kts 241°
2026-05-04 02:53 55.73881 9.14624 220 ft 8 kts 245°
2026-05-04 02:53 55.73865 9.14537 219 ft 7 kts 257°
2026-05-04 02:53 55.73856 9.14450 215 ft 7 kts 261°
2026-05-04 02:53 55.73850 9.14364 215 ft 7 kts 264°
2026-05-04 02:54 55.73846 9.14280 219 ft 7 kts 266°
2026-05-04 02:54 55.73843 9.14197 215 ft 7 kts 268°
2026-05-04 02:54 55.73841 9.14116 215 ft 7 kts 266°
2026-05-04 02:54 55.73838 9.14036 215 ft 6 kts 266°
2026-05-04 02:55 55.73834 9.13889 215 ft 5 kts 267°
2026-05-04 02:55 55.73830 9.13845 222 ft 3 kts 243°
2026-05-04 02:55 55.73809 9.13835 217 ft 3 kts 178°
2026-05-04 02:56 55.73786 9.13838 218 ft 4 kts 176°
2026-05-04 02:56 55.73763 9.13840 218 ft 1 kts 176°